Simultaneous Nadir Overpasses (SNOs) Predictions

Prediction of SNOs between GOES-17 and METOP-B Satellite Orbit:

Table of predicted SNOs for the next 14.0 days since TLE Epoch: 8/24/2024
Index Date Time (GOES-17) GOES-17 Lat,Lon METOP-B Lat,Lon Distance(km) Time Diff (sec)
1 08/24/2024 04:04:36 0.00,-104.69 0.71,-101.39 375.42 11
2 08/25/2024 16:22:20 0.00,-104.74 0.27,-105.98 141.16 80
3 08/26/2024 16:01:41 0.00,-104.74 -0.80,-100.98 427.08 80
4 08/28/2024 04:23:22 -0.01,-104.69 -0.20,-105.60 103.28 80
5 08/29/2024 04:00:02 -0.01,-104.69 0.88,-100.61 464.94 80
6 08/30/2024 16:21:34 0.01,-104.74 0.14,-105.19 51.56 79
7 09/02/2024 04:19:57 -0.00,-104.71 -0.03,-104.82 12.59 80
8 09/04/2024 16:18:09 -0.00,-104.76 -0.07,-104.41 40.59 80
9 09/06/2024 04:37:10 -0.00,-104.73 -0.96,-109.02 488.39 80
